CZ-4 DEB, 26313

Orbit data source: Space-Track

CZ-4 DEB, 26313 is space debris in SSO originally from a launch on Thu, 14 Oct 1999 UTC launched from the Taiyaun Space Center, China (TSC). Debris objects in space refer to the collection of defunct objects orbiting the Earth. Examples of debris include non-operational satellites, rocket bodies, and fragments generated from explosions, collisions, or faulty payload assembly.

Loading next visibility...
Identifier
26313, 1999-057GW
Orbit
SSO
Country
Flag of CNCN / PRC
Related business
Manufacturer
Unknown
Mission
Spacecraft
Bus & Motor
Unknown
Mass
Unknown
Launch date (UTC)
1999-10-14 (26 years ago)
Launch vehicle
Unknown
Launch site
Taiyaun Space Center, China (TSC)
Object type
Payload
Rocket body
Debris
Shape & HBR
Unknown shape, 0.1 m
Radar Cross Section
Small (<0.1 m²)

Expand to show TLE details & history
Last TLE update: 19 hours ago

TLE from 19 hours ago
0 CZ-4 DEB
1 26313U 99057GW  25349.42607311  .00001909  00000-0  42004-3 0  9994
2 26313  98.4702  48.4518 0072296 329.8150  48.3096 14.57104649355252
Epoch: 2025-12-15T10:13Z
TLE epoch observation values (Epoch: 2025-12-15T10:13:32.716Z)
Latitude
18.5306°
Longitude
167.89497°
Altitude
671.135 km
Speed
7.541 km/s
True Right ascension
03h 02m 25s
True Declination
18° 25' 33"
Sunlit
Object was in full shadow at epoch
Visualization orbit readout
Latitude
Unknown
Longitude
Unknown
Altitude
Unknown
Speed
Unknown
Apparent Right ascension
Unknown
Apparent Declination
Unknown
Sunlit
N/A
Visualization observer readout
Local Sidereal Time
04:23:31
Azimuth
Unknown
Elevation
Unknown
Doppler factor
Unknown
Orbital elements
Apogee altitude
750.805 km
Perigee altitude
648.466 km
Semi-major axis
7,077.773 km
Eccentricity
0.00723
Inclination
98.4702°
RAAN
48.4518°
Arg. of periapsis
329.815°
True anomaly
48.93197°
Mean anomaly
48.3096°
Eccentric anomaly
48.62041°
Mean motion
3.64501 °/min
Orbital period
98.77 mins
BSTAR
0.00042004
Loading maneuver chart data...
Computing Atmospheric mass density...
Loading historical data...
Loading historical data...
Loading historical data...
Loading historical data...
Loading historical data...
Loading historical data...
Loading historical data...

Documentation

Showing up to 5 results
|